Weather History for KHBR - October, 2012

Change the Weather History Date:

Thursday, October 11, 2012

  Actual Average Record
Temperature  
Mean Temperature 70 °F -  
Max Temperature 81 °F 73 °F 88 °F (2013)
Min Temperature 59 °F 50 °F 45 °F (2006)
Cooling Degree Days 5    
Growing Degree Days 20 (Base 50)    
Moisture  
Dew Point 58 °F    
Average Humidity 75    
Maximum Humidity 93    
Minimum Humidity 56    
Precipitation  
Precipitation 0.00 in - - ()
Sea Level Pressure  
Sea Level Pressure 30.07 in    
Wind  
Wind Speed 10 mph (SSW)    
Max Wind Speed 23 mph    
Max Gust Speed 30 mph    
Visibility 8 miles    
Events      
Averages and records for this station are not official NWS values.
T = Trace of Precipitation, MM = Missing Value Source: NWS Daily Summary

Daily Weather History Graph

Daily Weather History Graph

Search for Another Location

Airport or City:

Trip Planner

Search our weather history database for the weather conditions in past years. The results will help you decide how hot, cold, wet, or windy it might be!

Date:

Astronomy

Oct. 11, 2012 Rise Set
Actual Time 7:39 AM CDT 7:05 PM CDT
Civil Twilight 7:13 AM CDT 7:31 PM CDT
Nautical Twilight 6:44 AM CDT 8:00 PM CDT
Astronomical Twilight 6:15 AM CDT 8:29 PM CDT
Moon 3:28 AM CDT (10/11) 4:35 PM CDT (10/11)
Length of Visible Light 12h 17m
Length of Day
11h 26m
Waning Crescent, 18% of the Moon is Illuminated
Oct 11
Waning Crescent
Oct 15
New
Oct 21
First Quarter
Oct 29
Full
Nov 6
Last Quarter

Hourly Weather History & Observations

Time (CDT) Temp. Heat Index Dew Point Humidity Pressure Visibility Wind Dir Wind Speed Gust Speed Precip Events Conditions
12:10 AM 60.8 °F - 46.4 °F 59% 30.14 in 10.0 mi South 8.1 mph - N/A   Overcast
12:53 AM 60.1 °F - 48.9 °F 67% 30.12 in 10.0 mi South 10.4 mph - N/A   Overcast
1:20 AM 59.0 °F - 51.8 °F 77% 30.13 in 10.0 mi SSW 11.5 mph - N/A   Overcast
1:53 AM 59.0 °F - 52.0 °F 78% 30.11 in 10.0 mi SSW 9.2 mph - N/A   Overcast
2:26 AM 59.0 °F - 51.8 °F 77% 30.12 in 10.0 mi SW 6.9 mph - N/A   Overcast
2:48 AM 59.0 °F - 51.8 °F 77% 30.12 in 10.0 mi SSW 8.1 mph - N/A   Overcast
2:53 AM 59.0 °F - 52.0 °F 78% 30.09 in 10.0 mi SSW 8.1 mph - N/A   Overcast
3:11 AM 59.0 °F - 53.6 °F 82% 30.11 in 10.0 mi SW 6.9 mph - N/A   Overcast
3:53 AM 59.0 °F - 53.1 °F 81% 30.09 in 10.0 mi SW 8.1 mph - N/A   Overcast
4:44 AM 59.0 °F - 53.6 °F 82% 30.10 in 9.0 mi SW 5.8 mph - N/A   Overcast
4:53 AM 59.0 °F - 53.1 °F 81% 30.07 in 9.0 mi SW 5.8 mph - N/A   Overcast
5:02 AM 59.0 °F - 53.6 °F 82% 30.09 in 9.0 mi SW 8.1 mph - N/A   Overcast
5:53 AM 59.0 °F - 54.0 °F 83% 30.07 in 9.0 mi SSW 6.9 mph - N/A   Overcast
6:29 AM 60.8 °F - 53.6 °F 77% 30.10 in 9.0 mi SSW 6.9 mph - N/A   Overcast
6:53 AM 60.1 °F - 54.0 °F 80% 30.08 in 9.0 mi SSW 9.2 mph - N/A   Overcast
7:23 AM 60.8 °F - 53.6 °F 77% 30.10 in 9.0 mi SSW 6.9 mph - N/A   Overcast
7:53 AM 60.1 °F - 54.0 °F 80% 30.08 in 9.0 mi SSW 8.1 mph - N/A   Overcast
8:42 AM 60.8 °F - 55.4 °F 82% 30.12 in 5.0 mi SSW 9.2 mph - N/A   Overcast
8:50 AM 60.8 °F - 55.4 °F 82% 30.12 in 5.0 mi South 11.5 mph - N/A   Overcast
8:53 AM 60.1 °F - 55.9 °F 86% 30.10 in 5.0 mi South 10.4 mph - N/A   Overcast
9:46 AM 60.8 °F - 57.2 °F 88% 30.14 in 2.0 mi SSW 10.4 mph - N/A   Overcast
9:53 AM 60.1 °F - 57.9 °F 93% 30.12 in 3.0 mi South 9.2 mph - N/A   Overcast
10:53 AM 62.1 °F - 59.0 °F 90% 30.12 in 4.0 mi South 15.0 mph - N/A   Overcast
11:41 AM 66.2 °F - 60.8 °F 83% 30.13 in 6.0 mi SSW 13.8 mph - N/A   Haze
11:53 AM 66.9 °F - 61.0 °F 81% 30.10 in 7.0 mi SSW 13.8 mph - N/A   Overcast
12:53 PM 73.9 °F - 62.1 °F 66% 30.08 in 10.0 mi SSW 15.0 mph - N/A   Overcast
1:16 PM 75.2 °F - 62.6 °F 65% 30.10 in 10.0 mi SSW 15.0 mph - N/A   Overcast
1:53 PM 77.0 °F - 63.0 °F 62% 30.04 in 10.0 mi SSW 15.0 mph - N/A   Clear
2:53 PM 79.0 °F - 63.0 °F 58% 30.01 in 10.0 mi SW 19.6 mph 27.6 mph N/A   Partly Cloudy
3:53 PM 81.0 °F 82.5 °F 64.0 °F 56% 29.99 in 10.0 mi SSW 23.0 mph 29.9 mph N/A   Scattered Clouds
4:53 PM 79.0 °F - 64.9 °F 62% 29.99 in 10.0 mi SW 20.7 mph - N/A   Mostly Cloudy
5:53 PM 78.1 °F - 64.9 °F 64% 29.98 in 9.0 mi South 16.1 mph - N/A   Scattered Clouds
6:26 PM 78.8 °F - 64.4 °F 61% 30.02 in 3.0 mi South 17.3 mph 24.2 mph N/A   Haze
6:28 PM 78.8 °F - 64.4 °F 61% 30.02 in 1.8 mi South 18.4 mph 24.2 mph N/A   Haze
6:36 PM 78.8 °F - 64.4 °F 61% 30.02 in 2.0 mi SSW 17.3 mph - N/A   Haze
6:43 PM 77.0 °F - 64.4 °F 65% 30.02 in 5.0 mi South 16.1 mph - N/A   Haze
6:53 PM 77.0 °F - 64.9 °F 66% 29.99 in 10.0 mi SSW 16.1 mph - N/A   Clear
7:53 PM 73.4 °F - 64.4 °F 73% 30.04 in 10.0 mi South 11.5 mph - N/A   Clear
8:53 PM 73.0 °F - 66.0 °F 79% 30.02 in 10.0 mi South 10.4 mph - N/A   Clear
9:53 PM 70.0 °F - 64.9 °F 84% 30.04 in 10.0 mi Calm Calm - N/A   Clear
10:53 PM 70.0 °F - 66.0 °F 87% 30.06 in 10.0 mi SSE 8.1 mph - N/A   Clear
11:53 PM 71.1 °F - 66.9 °F 87% 30.05 in 10.0 mi South 6.9 mph - N/A   Mostly Cloudy